sat.trackr.live / text

‹ back to catalog

STARLINK-36578

NORAD 67571 · 2026-016L

PAYLOAD ACTIVE UNKNOWN

§ Identity

Operator
Country
US
Launch date
2026-01-25
Launch site
AFWTR
Launch vehicle
Mass (kg)
RCS (m²)

Purposes: comms

External: N2YO · Heavens-Above · Gunter

§ Orbital elements

Epoch: 2026-09-19T10:29:47.981760Z

Period
93.91 min
Inclination
97.2870°
Eccentricity
0.0000758
Mean motion
15.33449066 rev/d
Perigee alt
465.0 km
Apogee alt
466.0 km
Semi-major
6,843.7 km
B*
2.8683e-4
RAAN
321.0534°
Arg perigee
89.6588°
Mean anomaly
270.4742°
Rev number
3,655

§ Raw data

STARLINK-365781 67571U 26016L   26262.43736090  .00009197  00000+0  28683-3 0  99962 67571  97.2870 321.0534 0000758  89.6588 270.4742 15.33449066 36559

JSON: /api/v1/satellites/67571 · /tle

For live sub-satellite position, see the globe view (requires WebGL).

§ Visibility from observer

Set your observer location to see the next 7 days of passes ≥ 10°. The values pass through the URL so the page stays shareable.

No JS? Fill the form by hand. The geolocation button needs JavaScript.